Regional Weather Roundup
Issued by NWS

Home | Current Version | Previous Version | Graphics & Text | Print | Product List | Glossary On
Versions: 1 2 3 4 5 6 7 8 9 10 11 12 13 14 15 16 17 18 19 20 21 22 23 24 25 26 27 28 29 30 31 32 33 34 35 36 37 38 39 40 41 42 43 44 45 46 47 48 49 50
000
ASUS44 KMEG 290810
RWRTN
TENNESSEE HOURLY STATE WEATHER ROUNDUP
NATIONAL WEATHER SERVICE MEMPHIS TN
300 AM CDT FRI JUL 29 2016

TNZ002-004-019-021-049-052-054-088>092-290900-
WEST TENNESSEE

CITY           SKY/WX    TMP DP  RH WIND       PRES   REMARKS
MEMPHIS INTL   CLOUDY    76  72  87 SW7       29.95F
NWS MEMPHIS      N/A     76 N/A N/A MISG        N/A
JACKSON        PTCLDY    76  75  97 SW7       29.94F
DYERSBURG      CLOUDY   N/A N/A N/A MISG        N/A
UNION CITY     CLEAR     72  72 100 CALM      29.92R
PARIS          CLOUDY    73  72  94 CALM      29.94F
LEXINGTON      CLOUDY    75  73  94 S3        29.95S
$$

TNZ008-025-027-028-033-062-065-066-290900-
NORTH MIDDLE TENNESSEE

CITY           SKY/WX    TMP DP  RH WIND       PRES   REMARKS
NASHVILLE      CLOUDY    78  73  84 VRB5      29.96R
CLARKSVILLE    MOCLDY    76  73  91 SW5       29.93F
SMYRNA         CLOUDY    77  74  90 VRB5      29.97S
COOKEVILLE     CLOUDY    73  73 100 SW6       29.99S
CROSSVILLE     CLOUDY    71  70  96 W8        30.04S FOG
$$

TNZ061-075-076-078-094-096-097-290900-
SOUTH MIDDLE TENNESSEE

CITY           SKY/WX    TMP DP  RH WIND       PRES   REMARKS
FAYETTEVILLE   CLOUDY    73  73 100 SW7       30.00F
TULLAHOMA      CLOUDY    72  72 100 SW7       30.01S
WINCHESTER     CLOUDY    73  72  94 SW3       30.01S
MCMINNVILLE    CLOUDY    73  73 100 SW5       30.00S
COLUMBIA       CLOUDY   N/A N/A N/A SW7       29.96S
SHELBYVILLE    CLOUDY    75  75 100 SW5       29.99F
$$

TNZ017-018-042-046-047-290900-
NORTHEAST TENNESSEE

CITY           SKY/WX    TMP DP  RH WIND       PRES   REMARKS
TRI CITIES     CLOUDY    70  68  93 W8        30.00R
ELIZABETHTON   DRIZZLE   72  68  88 W7        30.00R
$$

TNZ012-013-036-069-073-074-290900-
CENTRAL EAST TENNESSEE

CITY           SKY/WX    TMP DP  RH WIND       PRES   REMARKS
KNOXVILLE      MOCLDY    73  71  93 SW6       29.99R
OAK RIDGE      CLOUDY    73  71  93 CALM      30.01R
GATLINBURG     PTCLDY    72  70  94 W3        29.99R
MORRISTOWN     CLOUDY    72  72 100 W7        30.00R
$$

TNZ083-085-099-290900-
SOUTHEAST TENNESSEE

CITY           SKY/WX    TMP DP  RH WIND       PRES   REMARKS
CHATTANOOGA    CLOUDY    76  71  85 SW3       30.00R
$$

SKY/WX REPORTED AS FAIR MEANS FEW OR NO CLOUDS BELOW
12 THOUSAND FEET.




USA.gov is the U.S. government's official web portal to all federal, state and local government web resources and services.